{"data":{"norad_id":56333,"intl_designator":"2023-058S","name":"STARLINK-5553","alt_names":[],"object_type":"PAYLOAD","status":"ACTIVE","operator":null,"country":"US","launch_date":"2023-04-27","launch_site_code":"AFWTR","launch_vehicle":null,"mission":null,"orbit_class":"UNKNOWN","rcs_meters":null,"size_class":null,"mass_kg":null,"dimensions":null,"purposes":["comms"],"wikipedia_slug":null,"has_3d_model":false,"image_url":null,"decayed_at":null,"tle_current":{"epoch":"2026-05-24T23:31:33.345120Z","epoch_age_seconds":76472,"freshness":"FRESH","line1":"1 56333U 23058S   26144.98024705 -.00012891  00000+0 -88946-3 0  9990","line2":"2 56333  97.4459 146.0119 0002130  70.1275 290.0182 15.05713539169670","mean_motion":15.05713539,"eccentricity":0.000213,"inclination_deg":97.4459,"raan_deg":146.0119,"arg_perigee_deg":70.1275,"mean_anomaly_deg":290.0182,"bstar":-0.00088946,"rev_number":16967,"period_min":95.635721051984,"perigee_km":547.84071376507,"apogee_km":550.79180885439,"semimajor_km":6927.4532613097,"source":"CELESTRAK","updated_at":"2026-05-25T13:38:18.002878Z"}}}